• In Österreich
  • Länderverzeichnis
  • Für 7 Tage
  • Wassertemperatur
  • Satellitenkarten
  • Wetterkarte
  • News
  • Widgets
  • user-avatar
    Anmelden

    Stündliche Wetter Wojcieszyn

    Heute, 15 November, Donnerstag

    Zeit Temperatur Niederschläge Wind Luftdruck Luftfeuchtigkeit
    00:00 +6°C° 0 mm 2 m/S 763 mmHg 94%
    01:00 +6°C° 0 mm 2 m/S 763 mmHg 95%
    02:00 +5°C° 0 mm 2 m/S 763 mmHg 95%
    03:00 +5°C° 0 mm 2 m/S 763 mmHg 96%
    04:00 +5°C° 0 mm 2 m/S 764 mmHg 96%
    05:00 +5°C° 0 mm 2 m/S 764 mmHg 96%
    06:00 +5°C° 0 mm 2 m/S 764 mmHg 96%
    07:00 +5°C° 0 mm 2 m/S 764 mmHg 95%
    08:00 +6°C° 0 mm 2 m/S 764 mmHg 92%
    09:00 +6°C° 0 mm 2 m/S 765 mmHg 88%
    10:00 +7°C° 0 mm 2 m/S 765 mmHg 84%
    11:00 +8°C° 0 mm 2 m/S 765 mmHg 81%
    12:00 +8°C° 0 mm 2 m/S 765 mmHg 78%
    13:00 +8°C° 0 mm 2 m/S 765 mmHg 75%
    14:00 +8°C° 0 mm 2 m/S 765 mmHg 76%
    15:00 +8°C° 0 mm 2 m/S 765 mmHg 78%
    16:00 +7°C° 0 mm 2 m/S 765 mmHg 80%
    17:00 +7°C° 0 mm 2 m/S 766 mmHg 83%
    18:00 +6°C° 0 mm 2 m/S 766 mmHg 85%
    19:00 +6°C° 0 mm 2 m/S 766 mmHg 88%
    20:00 +5°C° 0 mm 3 m/S 766 mmHg 87%
    21:00 +5°C° 0 mm 3 m/S 767 mmHg 85%
    22:00 +5°C° 0 mm 3 m/S 767 mmHg 84%
    23:00 +5°C° 0 mm 3 m/S 767 mmHg 81%

    Morgen, 16 November, Freitag

    Zeit Temperatur Niederschläge Wind Luftdruck Luftfeuchtigkeit
    00:00 +5°C° 0 mm 3 m/S 768 mmHg 78%
    01:00 +5°C° 0 mm 3 m/S 768 mmHg 75%
    02:00 +5°C° 0 mm 3 m/S 768 mmHg 75%
    03:00 +5°C° 0 mm 3 m/S 768 mmHg 75%
    04:00 +4°C° 0 mm 3 m/S 768 mmHg 75%
    05:00 +4°C° 0 mm 3 m/S 768 mmHg 76%
    06:00 +4°C° 0 mm 3 m/S 769 mmHg 78%
    07:00 +3°C° 0 mm 3 m/S 769 mmHg 79%
    08:00 +4°C° 0 mm 3 m/S 769 mmHg 77%
    09:00 +4°C° 0 mm 4 m/S 769 mmHg 75%
    10:00 +4°C° 0 mm 4 m/S 770 mmHg 73%
    11:00 +5°C° 0 mm 4 m/S 770 mmHg 72%
    12:00 +5°C° 0 mm 4 m/S 770 mmHg 70%
    13:00 +5°C° 0 mm 4 m/S 770 mmHg 69%
    14:00 +4°C° 0 mm 3 m/S 770 mmHg 71%
    15:00 +4°C° 0 mm 3 m/S 770 mmHg 74%
    16:00 +5°C° 0 mm 2 m/S 770 mmHg 76%
    17:00 +3°C° 0 mm 3 m/S 770 mmHg 78%
    18:00 +3°C° 0 mm 3 m/S 770 mmHg 80%
    19:00 +2°C° 0 mm 3 m/S 771 mmHg 83%
    20:00 +2°C° 0 mm 3 m/S 771 mmHg 84%
    21:00 +1°C° 0 mm 3 m/S 771 mmHg 85%
    22:00 +1°C° 0 mm 3 m/S 771 mmHg 87%
    23:00 +2°C° 0 mm 2 m/S 771 mmHg 87%

    übermorgen, 17 November, Samstag

    Zeit Temperatur Niederschläge Wind Luftdruck Luftfeuchtigkeit
    00:00 +1°C° 0 mm 2 m/S 771 mmHg 88%
    01:00 +1°C° 0 mm 2 m/S 772 mmHg 88%
    02:00 +1°C° 0 mm 2 m/S 771 mmHg 88%
    03:00 -1°C° 0 mm 2 m/S 771 mmHg 87%
    04:00 -1°C° 0 mm 2 m/S 771 mmHg 87%
    05:00 -1°C° 0 mm 2 m/S 771 mmHg 85%
    06:00 -1°C° 0 mm 2 m/S 772 mmHg 83%
    07:00 -2°C° 0 mm 2 m/S 772 mmHg 81%
    08:00 -1°C° 0 mm 3 m/S 772 mmHg 74%
    09:00 0°C° 0 mm 3 m/S 772 mmHg 66%
    10:00 +1°C° 0 mm 3 m/S 772 mmHg 58%
    11:00 +2°C° 0 mm 3 m/S 771 mmHg 54%
    12:00 +3°C° 0 mm 3 m/S 771 mmHg 49%
    13:00 +4°C° 0 mm 2 m/S 771 mmHg 44%
    14:00 +4°C° 0 mm 2 m/S 771 mmHg 47%
    15:00 +3°C° 0 mm 2 m/S 770 mmHg 50%
    16:00 +2°C° 0 mm 2 m/S 770 mmHg 53%
    17:00 +1°C° 0 mm 2 m/S 770 mmHg 54%
    18:00 +1°C° 0 mm 2 m/S 770 mmHg 55%
    19:00 -1°C° 0 mm 2 m/S 770 mmHg 56%
    20:00 +1°C° 0 mm 1 m/S 770 mmHg 55%
    21:00 +1°C° 0 mm 1 m/S 770 mmHg 55%
    22:00 +1°C° 0 mm 1 m/S 770 mmHg 54%
    23:00 +1°C° 0 mm 1 m/S 769 mmHg 53%

    18 November, Sonntag

    Zeit Temperatur Niederschläge Wind Luftdruck Luftfeuchtigkeit
    00:00 0°C° 0 mm 0 m/S 769 mmHg 52%
    01:00 0°C° 0 mm 0 m/S 769 mmHg 51%
    02:00 0°C° 0 mm 0 m/S 768 mmHg 51%
    03:00 +1°C° 0 mm 1 m/S 768 mmHg 51%
    04:00 +1°C° 0 mm 1 m/S 768 mmHg 51%
    05:00 +1°C° 0 mm 1 m/S 767 mmHg 53%
    06:00 +1°C° 0 mm 1 m/S 767 mmHg 55%
    07:00 -2°C° 0 mm 2 m/S 766 mmHg 57%
    08:00 +1°C° 0 mm 2 m/S 766 mmHg 57%
    09:00 +2°C° 0 mm 2 m/S 766 mmHg 58%
    10:00 +3°C° 0 mm 2 m/S 766 mmHg 58%
    11:00 +2°C° 0 mm 3 m/S 765 mmHg 61%
    12:00 +3°C° 0 mm 3 m/S 764 mmHg 64%
    13:00 +3°C° 0 mm 3 m/S 764 mmHg 67%
    14:00 +3°C° 0 mm 3 m/S 763 mmHg 73%
    15:00 +3°C° 0 mm 3 m/S 763 mmHg 80%
    16:00 +2°C° 0 mm 3 m/S 762 mmHg 86%
    17:00 +2°C° 0.1 mm 3 m/S 762 mmHg 86%
    18:00 +1°C° 0.1 mm 4 m/S 762 mmHg 86%
    19:00 +1°C° 0.1 mm 4 m/S 762 mmHg 86%
    20:00 +1°C° 0 mm 4 m/S 762 mmHg 83%
    21:00 +1°C° 0 mm 4 m/S 762 mmHg 80%
    22:00 +1°C° 0 mm 4 m/S 762 mmHg 77%
    23:00 0°C° 0 mm 4 m/S 762 mmHg 79%

    19 November, Montag

    Zeit Temperatur Niederschläge Wind Luftdruck Luftfeuchtigkeit
    00:00 0°C° 0 mm 4 m/S 762 mmHg 82%
    01:00 0°C° 0 mm 4 m/S 761 mmHg 84%
    02:00 -1°C° 0 mm 4 m/S 761 mmHg 85%
    03:00 -1°C° 0 mm 4 m/S 761 mmHg 86%
    04:00 -1°C° 0 mm 4 m/S 761 mmHg 87%
    05:00 -1°C° 0.1 mm 4 m/S 760 mmHg 86%
    06:00 -1°C° 0.1 mm 5 m/S 760 mmHg 85%
    07:00 0°C° 0.1 mm 5 m/S 760 mmHg 84%
    08:00 0°C° 0 mm 5 m/S 760 mmHg 82%
    09:00 +1°C° 0 mm 5 m/S 760 mmHg 79%
    10:00 +1°C° 0 mm 5 m/S 759 mmHg 76%
    11:00 +1°C° 0.1 mm 5 m/S 759 mmHg 76%
    12:00 +1°C° 0.1 mm 5 m/S 759 mmHg 75%
    13:00 +2°C° 0.1 mm 5 m/S 759 mmHg 74%
    14:00 +1°C° 0.1 mm 5 m/S 759 mmHg 75%
    15:00 +1°C° 0.1 mm 5 m/S 758 mmHg 76%
    16:00 +1°C° 0.1 mm 5 m/S 758 mmHg 77%
    17:00 +1°C° 0.1 mm 5 m/S 758 mmHg 78%
    18:00 0°C° 0.1 mm 5 m/S 759 mmHg 79%
    19:00 0°C° 0.1 mm 5 m/S 759 mmHg 80%
    20:00 0°C° 0 mm 5 m/S 759 mmHg 80%
    21:00 0°C° 0 mm 5 m/S 759 mmHg 81%
    22:00 0°C° 0 mm 5 m/S 759 mmHg 82%
    23:00 -1°C° 0 mm 5 m/S 759 mmHg 83%

    20 November, Dienstag

    Zeit Temperatur Niederschläge Wind Luftdruck Luftfeuchtigkeit
    00:00 -1°C° 0 mm 5 m/S 759 mmHg 85%
    01:00 -2°C° 0 mm 4 m/S 759 mmHg 86%
    02:00 -2°C° 0 mm 4 m/S 759 mmHg 86%
    03:00 -2°C° 0 mm 4 m/S 759 mmHg 87%
    04:00 -2°C° 0 mm 4 m/S 759 mmHg 87%
    05:00 -2°C° 0 mm 4 m/S 759 mmHg 87%
    06:00 -2°C° 0 mm 4 m/S 759 mmHg 87%
    07:00 -2°C° 0 mm 4 m/S 759 mmHg 88%
    08:00 -2°C° 0 mm 4 m/S 759 mmHg 84%
    09:00 -1°C° 0 mm 4 m/S 760 mmHg 80%
    10:00 -1°C° 0 mm 5 m/S 760 mmHg 76%
    11:00 -1°C° 0 mm 4 m/S 760 mmHg 74%
    12:00 -1°C° 0 mm 4 m/S 759 mmHg 72%
    13:00 -1°C° 0 mm 4 m/S 759 mmHg 70%
    14:00 -2°C° 0 mm 4 m/S 759 mmHg 71%
    15:00 -1°C° 0 mm 3 m/S 759 mmHg 72%
    16:00 -1°C° 0 mm 3 m/S 759 mmHg 74%
    17:00 -1°C° 0 mm 3 m/S 759 mmHg 75%
    18:00 -2°C° 0 mm 2 m/S 759 mmHg 77%
    19:00 -2°C° 0 mm 2 m/S 759 mmHg 78%
    20:00 -2°C° 0 mm 2 m/S 759 mmHg 80%
    21:00 -2°C° 0 mm 2 m/S 759 mmHg 82%
    22:00 -1°C° 0 mm 1 m/S 759 mmHg 84%
    23:00 -1°C° 0 mm 1 m/S 758 mmHg 85%
    Mehr zeigen